Orbital Elements at Epoch 2459000.5 (2020-May-31.0) TDB
Reference: JPL 20 (heliocentric ecliptic J2000)
Element | Value | Uncertainty (1-sigma) | Units |
e | .185379387568468 | 6.5137e-08 | |
a | 2.602895764277153 | 2.1152e-08 | au |
q | 2.120372541590895 | 1.7832e-07 | au |
i | 15.31180247840728 | 6.5025e-06 | deg |
node | 155.4295209057105 | 1.4855e-05 | deg |
peri | 188.9678850686646 | 1.8005e-05 | deg |
M | 216.5183633594712 | 1.24e-05 | deg |
tp | 2459611.832399168524 (2022-Feb-01.33239917) | 5.6686e-05 | TDB |
period | 1533.85247655102 4.20 | 1.8697e-05 5.119e-08 | d yr |
n | .2347031448614188 | 2.8609e-09 | deg/d |
Q | 3.085418986963411 | 2.5073e-08 | au |
|
| | Orbit Determination Parameters
Additional Information
|